Flag for Norway Weather past 2 weeks in Kvernaland, Norway

Now
64 °F

Scattered clouds.


Feels Like: 64 °F
Forecast: 55 / 61 °F
Wind: 12 mph from Southeast

Location: Stavanger / Sola

Current Time: Aug 29, 2014 at 2:09:50 PM

Latest Report: Aug 29, 2014 at 1:00 PM


Visibility: 22 mi

Pressure: 29.81 "Hg

Humidity: 61%

Dew point: 51 °F

Location of KvernalandLocation

Historic Weather in Kvernaland — Graph

°F

Kvernaland temperature yesterday

Maximum temperature yesterday: 64 °F (at 2:00 PM)
Minimum temperature yesterday: 52 °F (at 12:00 AM)
Average temperature yesterday: 58 °F

Past Weeks' High & Low Weather Summary

 TemperatureHumidityPressure
High67 °F (Aug 14, 2:00 PM)98% (Aug 27, 6:00 AM)29.99 "Hg (Aug 27, 6:00 AM)
Low48 °F (Aug 22, 6:00 AM)56% (Aug 14, 2:00 PM)29.21 "Hg (Aug 18, 9:00 AM)
Average56 °F81%29.67 "Hg
* Reported Aug 14 12:00 Noon — Aug 29 12:00 Noon, Kvernaland, Weather by CustomWeather, © 2014

Note: Actual official high and low records may vary slightly from our data, if they occured in-between our weather recording intervals... More about our weather records

Advertising

Kvernaland weather history for previous 24 hours

 ConditionsComfort  
Time TempWeatherWind HumidityBarometerVisibility
12:00 PM
Aug 29
62 °FLight rain. Partly sunny.8 mph68%29.82 "Hg25 mi
11:00 AM60 °FLight rain. Scattered clouds.7 mph76%29.83 "Hg12 mi
10:00 AM61 °FPartly sunny.8 mph71%29.82 "Hg28 mi
9:00 AM59 °FRain showers. Partly sunny.5 mph79%29.83 "Hg16 mi
8:00 AM61 °FPartly sunny.8 mph66%29.82 "Hg31 mi
7:00 AM62 °FOvercast.7 mph64%29.82 "Hg31 mi
6:00 AM61 °FPassing clouds.6 mph64%29.83 "Hg31 mi
5:00 AM60 °FClear.3 mph61%29.83 "Hg31 mi
4:00 AM59 °FClear.3 mph62%29.85 "Hg31 mi
3:00 AM57 °FClear.3 mph65%29.87 "Hg31 mi
2:00 AM56 °FClear.3 mph63%29.88 "Hg31 mi
1:00 AM54 °FClear.3 mph73%29.90 "Hg31 mi
12:00 AM55 °FClear.3 mph76%29.90 "Hg31 mi
11:00 PM
Aug 28
54 °FClear.1 mph77%29.92 "Hg31 mi
10:00 PM55 °FClear.2 mph77%29.93 "Hg31 mi
9:00 PM57 °FClear.1 mph77%29.93 "Hg31 mi
8:00 PM60 °FSunny.2 mph69%29.93 "Hg25 mi
7:00 PM61 °FSunny.5 mph65%29.93 "Hg22 mi
6:00 PM62 °FSunny.7 mph63%29.94 "Hg22 mi
5:00 PM63 °FSunny.7 mph58%29.95 "Hg19 mi
4:00 PM63 °FSunny.7 mph67%29.96 "Hg16 mi
3:00 PM64 °FSunny.7 mph65%29.97 "Hg19 mi
2:00 PM64 °FSunny.6 mph62%29.96 "Hg17 mi
Weather by CustomWeather, © 2014

See weather overviewHow to use our weather pages